Regional Weather Roundup
Issued by NWS

Home | Current Version | Previous Version | Graphics & Text | Print | Product List | Glossary On
Versions: 1 2 3 4 5 6 7 8 9 10 11 12 13 14 15 16 17 18 19 20 21 22 23 24 25 26 27
000
ASUS45 KCYS 192210
RWRWY

WYOMING REGIONAL WEATHER ROUNDUP
NATIONAL WEATHER SERVICE CHEYENNE WY
400 PM MDT SAT APR 19 2014

NOTE:  "FAIR" INDICATES FEW OR NO CLOUDS BELOW 12,000 FEET
WITH NO SIGNIFICANT WEATHER AND/OR OBSTRUCTIONS TO VISIBILITY.

WYZ001-192300-
YELLOWSTONE NATIONAL PARK

CITY           SKY/WX    TMP DP  RH WIND       PRES   REMARKS
LK YELLOWSTONE   N/A     47  10  22 VRB6      30.08F
W YELLOWSTONE  NOT AVBL

$$
WYZ002>013-054>058-071-098>099-192300-
NORTHERN WYOMING

CITY           SKY/WX    TMP DP  RH WIND       PRES   REMARKS
JACKSON        SUNNY     57  18  21 S12G17    30.03F
CODY           SUNNY     64  19  17 W16G23    29.93S
GREYBULL       SUNNY     66  20  17 S9        29.92F
WORLAND        MOSUNNY   66  26  22 E8        29.91F
SHERIDAN         N/A     59  28  31 SW21G28     N/A
BUFFALO        MOSUNNY   62  28  27 E12       29.94F
GILLETTE       MOSUNNY   63  27  25 S10G20    29.97F
HULETT         FAIR      61  25  25 SW7       30.00
NEWCASTLE      FAIR      61  21  21 SE6       30.00

$$
WYZ014>020-022>026-101>103-192300-
CENTRAL WYOMING

CITY           SKY/WX    TMP DP  RH WIND       PRES   REMARKS
BIG PINEY      MOSUNNY   61  15  16 W16G25    30.06F
PINEDALE       PTCLDY    54  19  26 NW14G23   30.07F
DUBOIS         FAIR      54  10  17 W25G32    30.02S
LANDER         PTSUNNY   63  17  17 NE5       29.94F
RIVERTON       MOSUNNY   67  10  11 SW9       29.95F
CASPER         SUNNY     70  24  17 SW9       29.93F
DOUGLAS        MOSUNNY   61  37  41 SE17      29.98F

$$
WYZ021-027>030-104>119-192300-
SOUTHERN WYOMING

CITY           SKY/WX    TMP DP  RH WIND       PRES   REMARKS
EVANSTON       MOSUNNY   63  31  30 W18G29    30.07F
KEMMERER       PTCLDY    59  30  33 W18G26    30.07F
FORT BRIDGER   MOCLDY    64  31  29 W20G25    30.08F
ROCK SPRINGS   PTSUNNY   64  25  22 W21       30.04F
DIXON          CLOUDY    58  38  48 W16       30.11R
RAWLINS        PTSUNNY   58  36  43 S23G29    30.05F
SARATOGA       CLOUDY    54  34  47 W22G30    30.08S
LARAMIE        CLOUDY    57  30  35 SW8       30.06F
CHEYENNE       MOSUNNY   61  37  41 S12       30.04F
TORRINGTON     PTSUNNY   64  35  34 S13       29.98F
PINE BLUFFS    FAIR      63  34  34 E6        30.04F

$$



USA.gov is the U.S. government's official web portal to all federal, state and local government web resources and services.